Location: Tamazert
(32.6352°N, 5.2072°W)
Time: 21:41:08
(UTC+00:00)

NOSS 3-3 (C) - Pass Details

Date: 22 May 2022
Orbit: 783 x 1429 km, 63.4° (Epoch: 23 June)

Event Time Altitude Azimuth Distance (km) Brightness Sun altitude
Exits shadow 04:19:35 15° 232° (SW) 2,037 5.0 -11.6°
Maximum altitude 04:23:54 51° 304° (NW) 1,061 4.1 -10.8°
Drops below altitude 10° 04:29:50 10° 21° (NNE) 2,663 7.1 -9.8°
Sets 04:32:39 0° 26° (NNE) 3,709 8.1 -9.3°
